Flag for Germany Weather past 2 weeks in Gütersloh, North Rhine-Westphalia, Germany

Now
36 °F

Drizzle. Overcast.


Feels Like: 36 °F
Forecast: 34 / 40 °F
Wind: 2 mph from South

Location: Bad Lippspringe

Current Time: Jan 26, 2015 at 10:14:54 AM

Latest Report: Jan 26, 2015 at 10:00 AM


Visibility: 4 mi

Pressure: 30.17 "Hg

Humidity: 97%

Dew point: 35 °F

Location of GüterslohLocation

Historic Weather in Gütersloh — Graph

°F

Gütersloh temperature yesterday

Maximum temperature yesterday: 35 °F (at 4:00 PM)
Minimum temperature yesterday: 32 °F (at 3:00 AM)
Average temperature yesterday: 33 °F

Past Weeks' High & Low Weather Summary

 TemperatureHumidityPressure
High53 °F (Jan 13, 1:00 PM)100% (Jan 24, 7:00 PM)30.39 "Hg (Jan 24, 7:00 PM)
Low25 °F (Jan 24, 4:00 AM)58% (Jan 13, 1:00 PM)29.47 "Hg (Jan 15, 4:00 PM)
Average36 °F83%29.96 "Hg
* Reported Jan 11 9:00 AM — Jan 26 9:00 AM, Gütersloh, Weather by CustomWeather, © 2014

Note: Actual official high and low records may vary slightly from our data, if they occured in-between our weather recording intervals... More about our weather records

Advertising

Gütersloh weather history for previous 24 hours

 ConditionsComfort  
Time TempWeatherWind HumidityBarometerVisibility
9:00 AM
Jan 26
35 °FLight rain. Low clouds.2 mph97%30.19 "Hg2 mi
8:00 AM35 °FDrizzle. Low clouds.2 mph98%30.21 "Hg6 mi
7:00 AM35 °FOvercast.1 mph97%30.22 "Hg4 mi
6:00 AM35 °FLow clouds.2 mph98%30.23 "HgN/A
5:00 AM35 °FDrizzle. Overcast.2 mph95%30.25 "Hg11 mi
4:00 AM35 °FLight rain. Overcast.2 mph97%30.28 "Hg11 mi
3:00 AM35 °FLow clouds.1 mph99%30.29 "Hg12 mi
2:00 AM35 °FDrizzle. Low clouds.2 mph98%30.31 "Hg4 mi
1:00 AM35 °FLight freezing rain. Low clouds.1 mph100%30.33 "Hg1 mi
12:00 AM35 °FLight freezing rain. Low clouds.1 mph100%30.34 "Hg1 mi
11:00 PM
Jan 25
34 °FLight freezing rain. Low clouds.1 mph100%30.34 "Hg2 mi
10:00 PM34 °FLight freezing rain. Low clouds.1 mph99%30.35 "Hg3 mi
9:00 PM34 °FLight freezing rain. Low clouds.2 mph99%30.37 "Hg2 mi
8:00 PM35 °FDrizzle. Low clouds.2 mph99%30.37 "HgN/A
7:00 PM35 °FDrizzle. Low clouds.1 mph100%30.38 "HgN/A
6:00 PM35 °FLow clouds.2 mph100%30.37 "Hg1 mi
5:00 PM35 °FLow clouds.2 mph99%30.37 "Hg1 mi
4:00 PM35 °FLow clouds.2 mph98%30.36 "Hg1 mi
3:00 PM34 °FLow clouds.1 mph99%30.36 "Hg1 mi
2:00 PM34 °FLow clouds.1 mph97%30.37 "Hg1 mi
1:00 PM34 °FFog.2 mph98%30.38 "Hg1 mi
12:00 PM33 °FLow clouds.2 mph98%30.39 "Hg1 mi
11:00 AM33 °FFog.1 mph99%30.39 "Hg1 mi
10:00 AM32 °FLow clouds.1 mph98%30.39 "Hg1 mi
Weather by CustomWeather, © 2014

See weather overviewHow to use our weather pages